• In Uzbekistan
  • List of Countries
  • For 7 days
  • Water Temperature
  • Satellite Maps
  • Weather Map
  • Weather Widgets
  • user-avatar
    Login

    Hourly Weather Córdoba

    Today, 20 February, Monday

    Time Temperature Precipitation Wind Pressure Humidity
    00:00 +24°C° 0 mm 2 mps 724 mmHg 76%
    01:00 +24°C° 0 mm 2 mps 724 mmHg 78%
    02:00 +23°C° 0 mm 2 mps 724 mmHg 82%
    03:00 +23°C° 0 mm 2 mps 724 mmHg 84%
    04:00 +23°C° 0 mm 2 mps 724 mmHg 85%
    05:00 +21°C° 0 mm 2 mps 724 mmHg 86%
    06:00 +24°C° 0 mm 2 mps 724 mmHg 79%
    07:00 +26°C° 0 mm 2 mps 725 mmHg 71%
    08:00 +28°C° 0 mm 2 mps 725 mmHg 61%
    09:00 +30°C° 0 mm 3 mps 725 mmHg 54%
    10:00 +33°C° 0 mm 3 mps 725 mmHg 47%
    11:00 +35°C° 0 mm 3 mps 725 mmHg 40%
    12:00 +36°C° 0.2 mm 3 mps 725 mmHg 38%
    13:00 +37°C° 0.2 mm 3 mps 724 mmHg 35%
    14:00 +38°C° 0.2 mm 4 mps 724 mmHg 33%
    15:00 +38°C° 0.1 mm 4 mps 723 mmHg 34%
    16:00 +37°C° 0.1 mm 4 mps 723 mmHg 36%
    17:00 +37°C° 0.1 mm 4 mps 722 mmHg 37%
    18:00 +35°C° 0.2 mm 4 mps 722 mmHg 45%
    19:00 +32°C° 0.2 mm 4 mps 722 mmHg 53%
    20:00 +29°C° 0.2 mm 3 mps 723 mmHg 61%
    21:00 +28°C° 0.1 mm 3 mps 723 mmHg 65%
    22:00 +27°C° 0.1 mm 3 mps 723 mmHg 70%
    23:00 +27°C° 0.1 mm 3 mps 724 mmHg 74%

    Tomorrow, 21 February, Tuesday

    Time Temperature Precipitation Wind Pressure Humidity
    00:00 +26°C° 0.1 mm 3 mps 724 mmHg 75%
    01:00 +26°C° 0.1 mm 2 mps 724 mmHg 77%
    02:00 +26°C° 0.1 mm 2 mps 724 mmHg 79%
    03:00 +25°C° 0 mm 2 mps 724 mmHg 80%
    04:00 +25°C° 0 mm 2 mps 724 mmHg 81%
    05:00 +25°C° 0 mm 2 mps 724 mmHg 82%
    06:00 +27°C° 0 mm 2 mps 724 mmHg 75%
    07:00 +28°C° 0 mm 2 mps 724 mmHg 69%
    08:00 +30°C° 0 mm 1 mps 725 mmHg 63%
    09:00 +32°C° 0 mm 2 mps 725 mmHg 55%
    10:00 +34°C° 0 mm 2 mps 725 mmHg 47%
    11:00 +36°C° 0 mm 2 mps 724 mmHg 39%
    12:00 +37°C° 0.2 mm 2 mps 724 mmHg 36%
    13:00 +38°C° 0.2 mm 2 mps 724 mmHg 33%
    14:00 +39°C° 0.2 mm 2 mps 723 mmHg 31%
    15:00 +39°C° 0.3 mm 3 mps 723 mmHg 32%
    16:00 +38°C° 0.3 mm 3 mps 722 mmHg 33%
    17:00 +38°C° 0.3 mm 4 mps 722 mmHg 35%
    18:00 +36°C° 0.4 mm 3 mps 722 mmHg 42%
    19:00 +33°C° 0.4 mm 3 mps 722 mmHg 49%
    20:00 +30°C° 0.4 mm 3 mps 722 mmHg 55%
    21:00 +29°C° 0.3 mm 3 mps 722 mmHg 60%
    22:00 +28°C° 0.3 mm 2 mps 723 mmHg 64%
    23:00 +27°C° 0.3 mm 2 mps 723 mmHg 69%

    Day after tomorrow, 22 February, Wednesday

    Time Temperature Precipitation Wind Pressure Humidity
    00:00 +27°C° 0.4 mm 2 mps 723 mmHg 70%
    01:00 +27°C° 0.4 mm 2 mps 723 mmHg 71%
    02:00 +26°C° 0.4 mm 2 mps 723 mmHg 72%
    03:00 +26°C° 0.3 mm 2 mps 722 mmHg 73%
    04:00 +26°C° 0.3 mm 2 mps 722 mmHg 73%
    05:00 +26°C° 0.3 mm 2 mps 722 mmHg 73%
    06:00 +27°C° 0.4 mm 2 mps 723 mmHg 68%
    07:00 +29°C° 0.4 mm 2 mps 723 mmHg 64%
    08:00 +30°C° 0.4 mm 2 mps 724 mmHg 59%
    09:00 +32°C° 0.1 mm 2 mps 724 mmHg 51%
    10:00 +35°C° 0.1 mm 2 mps 724 mmHg 43%
    11:00 +37°C° 0.1 mm 2 mps 724 mmHg 35%
    12:00 +38°C° 0.4 mm 3 mps 723 mmHg 34%
    13:00 +38°C° 0.4 mm 3 mps 722 mmHg 33%
    14:00 +40°C° 0.4 mm 4 mps 722 mmHg 32%
    15:00 +40°C° 0 mm 4 mps 721 mmHg 33%
    16:00 +38°C° 0 mm 3 mps 721 mmHg 34%
    17:00 +38°C° 0 mm 3 mps 720 mmHg 35%
    18:00 +36°C° 0.2 mm 3 mps 720 mmHg 40%
    19:00 +33°C° 0.2 mm 3 mps 720 mmHg 46%
    20:00 +30°C° 0.2 mm 3 mps 721 mmHg 51%
    21:00 +30°C° 0.1 mm 3 mps 721 mmHg 54%
    22:00 +29°C° 0.1 mm 3 mps 721 mmHg 56%
    23:00 +29°C° 0.1 mm 3 mps 721 mmHg 59%

    23 February, Thursday

    Time Temperature Precipitation Wind Pressure Humidity
    00:00 +28°C° 0 mm 3 mps 721 mmHg 60%
    01:00 +28°C° 0 mm 2 mps 721 mmHg 60%
    02:00 +28°C° 0 mm 2 mps 721 mmHg 61%
    03:00 +27°C° 0.2 mm 2 mps 721 mmHg 63%
    04:00 +27°C° 0.2 mm 2 mps 721 mmHg 66%
    05:00 +26°C° 0.2 mm 2 mps 721 mmHg 69%
    06:00 +28°C° 0.1 mm 2 mps 721 mmHg 63%
    07:00 +30°C° 0.1 mm 2 mps 722 mmHg 57%
    08:00 +31°C° 0.1 mm 2 mps 722 mmHg 52%
    09:00 +34°C° 0 mm 3 mps 722 mmHg 45%
    10:00 +36°C° 0 mm 3 mps 722 mmHg 38%
    11:00 +39°C° 0 mm 3 mps 722 mmHg 31%
    12:00 +39°C° 0.3 mm 3 mps 722 mmHg 30%
    13:00 +39°C° 0.3 mm 3 mps 721 mmHg 29%
    14:00 +39°C° 0.3 mm 3 mps 721 mmHg 29%
    15:00 +39°C° 0.2 mm 3 mps 720 mmHg 30%
    16:00 +39°C° 0.2 mm 3 mps 720 mmHg 31%
    17:00 +38°C° 0.2 mm 3 mps 719 mmHg 31%
    18:00 +36°C° 0.1 mm 3 mps 719 mmHg 36%
    19:00 +34°C° 0.1 mm 3 mps 720 mmHg 40%
    20:00 +31°C° 0.1 mm 3 mps 720 mmHg 45%
    21:00 +30°C° 0 mm 3 mps 720 mmHg 47%
    22:00 +30°C° 0 mm 3 mps 720 mmHg 48%
    23:00 +29°C° 0 mm 3 mps 720 mmHg 50%

    24 February, Friday

    Time Temperature Precipitation Wind Pressure Humidity
    00:00 +29°C° 0.1 mm 2 mps 720 mmHg 53%
    01:00 +28°C° 0.1 mm 2 mps 720 mmHg 56%
    02:00 +27°C° 0.1 mm 2 mps 720 mmHg 58%
    03:00 +27°C° 0 mm 2 mps 720 mmHg 59%
    04:00 +27°C° 0 mm 2 mps 720 mmHg 59%
    05:00 +27°C° 0 mm 2 mps 720 mmHg 59%
    06:00 +29°C° 0 mm 2 mps 720 mmHg 55%
    07:00 +30°C° 0 mm 2 mps 721 mmHg 51%
    08:00 +32°C° 0 mm 2 mps 722 mmHg 47%
    09:00 +35°C° 0.1 mm 2 mps 722 mmHg 41%
    10:00 +37°C° 0.1 mm 3 mps 722 mmHg 35%
    11:00 +39°C° 0.1 mm 3 mps 722 mmHg 29%
    12:00 +40°C° 0.2 mm 3 mps 721 mmHg 27%
    13:00 +40°C° 0.2 mm 3 mps 721 mmHg 26%
    14:00 +42°C° 0.2 mm 3 mps 720 mmHg 25%
    15:00 +41°C° 0.1 mm 4 mps 720 mmHg 26%
    16:00 +41°C° 0.1 mm 4 mps 720 mmHg 27%
    17:00 +40°C° 0.1 mm 4 mps 719 mmHg 28%
    18:00 +37°C° 0 mm 4 mps 719 mmHg 33%
    19:00 +35°C° 0 mm 3 mps 719 mmHg 38%
    20:00 +33°C° 0 mm 3 mps 719 mmHg 42%
    21:00 +31°C° 0 mm 3 mps 720 mmHg 45%
    22:00 +30°C° 0 mm 3 mps 720 mmHg 48%
    23:00 +29°C° 0 mm 3 mps 720 mmHg 52%

    25 February, Saturday

    Time Temperature Precipitation Wind Pressure Humidity
    00:00 +29°C° 0.2 mm 3 mps 720 mmHg 55%
    01:00 +28°C° 0.2 mm 2 mps 720 mmHg 58%
    02:00 +27°C° 0.2 mm 2 mps 720 mmHg 61%
    03:00 +27°C° 0 mm 2 mps 720 mmHg 63%
    04:00 +26°C° 0 mm 2 mps 720 mmHg 66%
    05:00 +26°C° 0 mm 1 mps 720 mmHg 68%
    06:00 +27°C° 0.2 mm 1 mps 721 mmHg 63%
    07:00 +29°C° 0.2 mm 1 mps 721 mmHg 59%
    08:00 +30°C° 0.2 mm 2 mps 722 mmHg 54%
    09:00 +32°C° 0.1 mm 2 mps 722 mmHg 48%
    10:00 +35°C° 0.1 mm 3 mps 722 mmHg 42%
    11:00 +37°C° 0.1 mm 4 mps 722 mmHg 36%
    12:00 +38°C° 0 mm 4 mps 721 mmHg 33%
    13:00 +38°C° 0 mm 4 mps 721 mmHg 30%
    14:00 +40°C° 0 mm 4 mps 720 mmHg 27%
    15:00 +40°C° 0.1 mm 4 mps 720 mmHg 29%
    16:00 +38°C° 0.1 mm 4 mps 719 mmHg 30%
    17:00 +37°C° 0.1 mm 4 mps 719 mmHg 32%
    18:00 +35°C° 0.1 mm 4 mps 719 mmHg 37%
    19:00 +34°C° 0.1 mm 4 mps 719 mmHg 42%
    20:00 +32°C° 0.1 mm 4 mps 719 mmHg 47%
    21:00 +30°C° 0.1 mm 4 mps 719 mmHg 51%
    22:00 +29°C° 0.1 mm 3 mps 720 mmHg 55%
    23:00 +28°C° 0.1 mm 3 mps 720 mmHg 59%
    Show more